Location: Sungai Liu
(2.3667°N, 113.8667°E)
Time: 06:22:24
(UTC+00:00)

Ariane H10 - Visible Passes

Search period start: 06 October 2022 00:00
Search period end: 16 October 2022 00:00
Orbit: 525 x 35422 km, 8.0° (Epoch: 05 October)

Date Brightness Start Highest point End Pass type
(mag) Time Alt. Az. Time Alt. Az. Time Alt. Az.
06 Oct 9.7 06:02:25 10° W 07:21:27 22° W 09:55:06 10° W visible
06 Oct 6.5 15:03:42 10° W 15:07:38 16° WNW 15:07:38 16° WNW visible
07 Oct 5.1 02:19:58 10° WSW 12:01:54 75° N 12:08:22 42° ENE visible
08 Oct 3.8 20:03:04 55° SSW 20:03:51 57° S 05:36:06 10° E visible
10 Oct 5.2 04:07:50 10° W 05:51:13 44° W 13:40:56 54° WNW visible
11 Oct 6.0 00:45:41 10° WSW 10:21:03 81° N 10:41:22 10° E visible
11 Oct 5.3 21:35:52 10° WSW 21:44:55 63° S 07:27:00 10° E visible
12 Oct 5.6 18:36:15 20° ESE 18:36:15 20° ESE 18:40:08 10° ESE visible
13 Oct 10.0 06:23:58 10° W 07:26:50 16° W 09:08:18 10° W visible
13 Oct 6.7 15:13:19 10° W 15:13:31 10° W 15:13:31 10° W visible
14 Oct 4.8 02:27:41 10° WSW 04:20:26 66° WSW 12:14:13 49° ENE visible
15 Oct 4.1 20:08:41 46° SW 20:10:35 56° S 20:52:35 10° E visible
15 Oct 4.1 20:08:41 46° SW 20:10:35 56° S 20:52:36 10° E visible
